TimeCDT,TemperatureF,Dew PointF,Humidity,Sea Level PressureIn,VisibilityMPH,Wind Direction,Wind SpeedMPH,Gust SpeedMPH,PrecipitationIn,Events,Conditions,WindDirDegrees,DateUTC
12:15 AM,54.9,54.9,100,30.10,10.0,Calm,Calm,-,N/A,,Clear,0,2013-10-10 05:15:00
12:35 AM,54.5,54.5,100,30.10,10.0,Calm,Calm,-,N/A,,Clear,0,2013-10-10 05:35:00
12:55 AM,54.1,54.1,100,30.10,10.0,Calm,Calm,-,N/A,,Clear,0,2013-10-10 05:55:00
1:15 AM,54.1,54.1,100,30.10,10.0,Calm,Calm,-,N/A,,Clear,0,2013-10-10 06:15:00
1:35 AM,53.6,53.6,100,30.10,10.0,Calm,Calm,-,N/A,,Clear,0,2013-10-10 06:35:00
1:55 AM,53.6,53.6,100,30.10,10.0,Calm,Calm,-,N/A,,Clear,0,2013-10-10 06:55:00
2:15 AM,52.9,52.9,100,30.10,10.0,Calm,Calm,-,N/A,,Clear,0,2013-10-10 07:15:00
2:35 AM,52.5,52.5,100,30.11,10.0,Calm,Calm,-,N/A,,Clear,0,2013-10-10 07:35:00
2:55 AM,52.7,52.7,100,30.11,10.0,Calm,Calm,-,N/A,,Clear,0,2013-10-10 07:55:00
3:15 AM,52.2,52.2,100,30.10,10.0,Calm,Calm,-,N/A,,Clear,0,2013-10-10 08:15:00
3:35 AM,54.7,54.7,100,30.11,10.0,Calm,Calm,-,N/A,,Clear,0,2013-10-10 08:35:00
3:55 AM,52.0,52.0,100,30.11,10.0,Calm,Calm,-,N/A,,Clear,0,2013-10-10 08:55:00
4:15 AM,51.8,51.8,100,30.11,10.0,Calm,Calm,-,N/A,,Clear,0,2013-10-10 09:15:00
4:35 AM,52.2,52.2,100,30.11,10.0,Calm,Calm,-,N/A,,Clear,0,2013-10-10 09:35:00
4:55 AM,51.4,51.4,100,30.12,10.0,Calm,Calm,-,N/A,,Clear,0,2013-10-10 09:55:00
5:15 AM,51.4,51.4,100,30.12,10.0,Calm,Calm,-,N/A,,Clear,0,2013-10-10 10:15:00
5:35 AM,50.9,50.9,100,30.12,10.0,Calm,Calm,-,N/A,,Clear,0,2013-10-10 10:35:00
5:55 AM,51.4,51.4,100,30.13,10.0,Calm,Calm,-,N/A,,Clear,0,2013-10-10 10:55:00
6:15 AM,51.1,51.1,100,30.12,10.0,Calm,Calm,-,N/A,,Clear,0,2013-10-10 11:15:00
6:35 AM,50.2,50.2,100,30.13,10.0,Calm,Calm,-,N/A,,Clear,0,2013-10-10 11:35:00
6:55 AM,50.7,50.7,100,30.13,10.0,Calm,Calm,-,N/A,,Clear,0,2013-10-10 11:55:00
7:15 AM,50.9,50.9,100,30.13,1.0,Calm,Calm,-,N/A,,Overcast,0,2013-10-10 12:15:00
7:35 AM,52.5,52.5,100,30.13,0.2,Calm,Calm,-,N/A,Fog,Fog,0,2013-10-10 12:35:00
7:55 AM,54.7,54.7,100,30.14,1.8,Calm,Calm,-,N/A,,Overcast,0,2013-10-10 12:55:00
8:15 AM,57.4,57.4,100,30.14,0.2,Calm,Calm,-,N/A,Fog,Fog,0,2013-10-10 13:15:00
8:35 AM,56.8,56.8,100,30.15,0.2,Calm,Calm,-,N/A,Fog,Fog,0,2013-10-10 13:35:00
8:55 AM,58.3,58.3,100,30.15,0.5,SE,3.5,-,N/A,Fog,Fog,130,2013-10-10 13:55:00
9:15 AM,58.5,58.5,100,30.16,0.8,ESE,3.5,-,N/A,,Overcast,120,2013-10-10 14:15:00
9:35 AM,59.0,59.0,100,30.17,1.2,Calm,Calm,-,N/A,,Overcast,0,2013-10-10 14:35:00
9:55 AM,59.9,59.9,100,30.17,2.5,Calm,Calm,-,N/A,,Overcast,0,2013-10-10 14:55:00
10:15 AM,61.0,61.0,100,30.18,4.0,Calm,Calm,-,N/A,,Overcast,0,2013-10-10 15:15:00
10:35 AM,63.0,63.0,100,30.17,10.0,Calm,Calm,-,N/A,,Mostly Cloudy,0,2013-10-10 15:35:00
10:55 AM,66.9,61.9,84,30.17,10.0,Calm,Calm,-,N/A,,Scattered Clouds,0,2013-10-10 15:55:00
11:15 AM,68.9,62.1,79,30.17,10.0,Calm,Calm,-,N/A,,Clear,0,2013-10-10 16:15:00
11:35 AM,70.5,61.7,74,30.17,10.0,Calm,Calm,-,N/A,,Clear,0,2013-10-10 16:35:00
11:55 AM,72.5,62.4,71,30.16,10.0,Calm,Calm,-,N/A,,Clear,0,2013-10-10 16:55:00
12:15 PM,74.8,62.1,64,30.15,10.0,SE,4.6,-,N/A,,Clear,140,2013-10-10 17:15:00
12:35 PM,74.7,61.2,63,30.14,10.0,SE,4.6,-,N/A,,Clear,130,2013-10-10 17:35:00
12:55 PM,76.6,58.5,53,30.14,10.0,Calm,Calm,-,N/A,,Clear,0,2013-10-10 17:55:00
1:15 PM,77.5,56.8,49,30.13,10.0,SE,3.5,-,N/A,,Clear,130,2013-10-10 18:15:00
1:35 PM,78.3,56.1,46,30.11,10.0,ENE,3.5,-,N/A,,Clear,60,2013-10-10 18:35:00
1:55 PM,78.6,55.6,45,30.10,10.0,ESE,5.8,-,N/A,,Clear,120,2013-10-10 18:55:00
2:15 PM,78.3,55.8,46,30.09,10.0,Calm,Calm,-,N/A,,Clear,0,2013-10-10 19:15:00
2:35 PM,79.3,56.5,45,30.07,10.0,SSE,5.8,-,N/A,,Clear,160,2013-10-10 19:35:00
2:55 PM,79.2,56.5,46,30.07,10.0,South,3.5,-,N/A,,Clear,180,2013-10-10 19:55:00
3:15 PM,78.8,55.6,45,30.07,10.0,Calm,Calm,-,N/A,,Clear,0,2013-10-10 20:15:00
3:35 PM,79.7,56.1,44,30.06,10.0,SSE,3.5,-,N/A,,Clear,150,2013-10-10 20:35:00
3:55 PM,79.3,56.3,45,30.06,10.0,ESE,3.5,-,N/A,,Clear,120,2013-10-10 20:55:00
4:15 PM,79.2,56.8,46,30.05,10.0,ESE,6.9,-,N/A,,Clear,110,2013-10-10 21:15:00
4:35 PM,79.2,56.1,45,30.05,10.0,SSE,5.8,-,N/A,,Clear,150,2013-10-10 21:35:00
4:55 PM,79.2,56.1,45,30.05,10.0,SE,5.8,-,N/A,,Clear,130,2013-10-10 21:55:00
5:15 PM,78.4,56.5,47,30.05,10.0,SSE,3.5,-,N/A,,Clear,150,2013-10-10 22:15:00
5:35 PM,78.1,57.4,49,30.04,10.0,Calm,Calm,-,N/A,,Clear,0,2013-10-10 22:35:00
5:55 PM,77.5,58.1,51,30.04,10.0,Calm,Calm,-,N/A,,Clear,0,2013-10-10 22:55:00
6:15 PM,75.7,62.8,64,30.04,10.0,Calm,Calm,-,N/A,,Clear,0,2013-10-10 23:15:00
6:35 PM,68.9,63.5,83,30.04,10.0,Calm,Calm,-,N/A,,Clear,0,2013-10-10 23:35:00
6:55 PM,66.9,63.5,89,30.04,10.0,Calm,Calm,-,N/A,,Clear,0,2013-10-10 23:55:00
7:15 PM,65.7,63.3,92,30.04,10.0,Calm,Calm,-,N/A,,Clear,0,2013-10-11 00:15:00
7:35 PM,64.6,63.0,94,30.03,10.0,Calm,Calm,-,N/A,,Clear,0,2013-10-11 00:35:00
7:55 PM,63.7,62.6,96,30.04,10.0,Calm,Calm,-,N/A,,Clear,0,2013-10-11 00:55:00
8:15 PM,62.8,62.8,100,30.04,10.0,Calm,Calm,-,N/A,,Clear,0,2013-10-11 01:15:00
8:35 PM,62.1,62.1,100,30.04,10.0,Calm,Calm,-,N/A,,Clear,0,2013-10-11 01:35:00
8:55 PM,61.3,61.3,100,30.04,10.0,Calm,Calm,-,N/A,,Clear,0,2013-10-11 01:55:00
9:15 PM,60.8,60.8,100,30.04,7.0,Calm,Calm,-,N/A,,Clear,0,2013-10-11 02:15:00
9:35 PM,60.6,60.6,100,30.04,7.0,Calm,Calm,-,N/A,,Clear,0,2013-10-11 02:35:00
9:55 PM,60.8,60.8,100,30.04,7.0,Calm,Calm,-,N/A,,Clear,0,2013-10-11 02:55:00
10:15 PM,60.8,60.8,100,30.04,10.0,Calm,Calm,-,N/A,,Clear,0,2013-10-11 03:15:00
10:35 PM,59.7,59.7,100,30.04,10.0,Calm,Calm,-,N/A,,Clear,0,2013-10-11 03:35:00
10:55 PM,59.4,59.4,100,30.04,7.0,Calm,Calm,-,N/A,,Clear,0,2013-10-11 03:55:00
11:15 PM,59.0,59.0,100,30.03,10.0,Calm,Calm,-,N/A,,Clear,0,2013-10-11 04:15:00
11:35 PM,59.0,59.0,100,30.03,10.0,Calm,Calm,-,N/A,,Clear,0,2013-10-11 04:35:00
11:55 PM,59.5,59.5,100,30.03,10.0,Calm,Calm,-,N/A,,Clear,0,2013-10-11 04:55:00